When you browse on this site, cookies collect data to enhance your experience and personalize the content and advertising you see.
Visit our Privacy Policy to learn more. By continuing to use the site, you agree to this use of cookies and data.
  • Em Portugal
  • Lista de países
  • Para 7 dias
  • Temperatura da água
  • Mapas de satélite
  • Mapa do tempo
  • Widgets de tempo
  • user-avatar
    Iniciar Sessão

    Previsão horária em Solno

    Hoje, 18 Janeiro, Sexta-feira

    Tempo Temperatura Precipitação Vento Pressão Humidade
    00:00 +1°C° 0.2 mm 5 m/s 742 mmHg 84%
    01:00 0°C° 0 mm 5 m/s 743 mmHg 85%
    02:00 0°C° 0.5 mm 5 m/s 744 mmHg 85%
    03:00 -1°C° 0.5 mm 5 m/s 745 mmHg 85%
    04:00 -2°C° 0.5 mm 6 m/s 745 mmHg 85%
    05:00 -2°C° 0.1 mm 6 m/s 747 mmHg 82%
    06:00 -2°C° 0.1 mm 5 m/s 748 mmHg 79%
    07:00 -2°C° 0 mm 5 m/s 749 mmHg 75%
    08:00 -2°C° 0 mm 5 m/s 750 mmHg 74%
    09:00 -2°C° 0 mm 5 m/s 751 mmHg 72%
    10:00 -2°C° 0 mm 5 m/s 752 mmHg 71%
    11:00 -2°C° 0 mm 5 m/s 752 mmHg 69%
    12:00 -1°C° 0 mm 5 m/s 753 mmHg 66%
    13:00 0°C° 0 mm 5 m/s 753 mmHg 64%
    14:00 -1°C° 0.2 mm 5 m/s 753 mmHg 68%
    15:00 -1°C° 0.2 mm 4 m/s 754 mmHg 73%
    16:00 -2°C° 0.2 mm 4 m/s 754 mmHg 77%
    17:00 -2°C° 0 mm 4 m/s 754 mmHg 79%
    18:00 -3°C° 0 mm 4 m/s 755 mmHg 81%
    19:00 -3°C° 0 mm 4 m/s 755 mmHg 83%
    20:00 -3°C° 0 mm 4 m/s 755 mmHg 84%
    21:00 -2°C° 0 mm 3 m/s 755 mmHg 86%
    22:00 -2°C° 0 mm 3 m/s 756 mmHg 88%
    23:00 -2°C° 0 mm 3 m/s 756 mmHg 87%

    Amanhã, 19 Janeiro, Sábado

    Tempo Temperatura Precipitação Vento Pressão Humidade
    00:00 -2°C° 0 mm 3 m/s 756 mmHg 87%
    01:00 -2°C° 0 mm 3 m/s 756 mmHg 86%
    02:00 -2°C° 0 mm 3 m/s 757 mmHg 85%
    03:00 -2°C° 0 mm 3 m/s 757 mmHg 84%
    04:00 -2°C° 0 mm 3 m/s 757 mmHg 82%
    05:00 -2°C° 0 mm 3 m/s 757 mmHg 84%
    06:00 -2°C° 0 mm 3 m/s 757 mmHg 85%
    07:00 -2°C° 0 mm 3 m/s 757 mmHg 87%
    08:00 -2°C° 0 mm 3 m/s 757 mmHg 87%
    09:00 -1°C° 0 mm 3 m/s 758 mmHg 86%
    10:00 -1°C° 0 mm 3 m/s 758 mmHg 86%
    11:00 0°C° 0 mm 3 m/s 758 mmHg 83%
    12:00 0°C° 0 mm 3 m/s 758 mmHg 81%
    13:00 +1°C° 0 mm 3 m/s 758 mmHg 79%
    14:00 0°C° 0 mm 3 m/s 758 mmHg 82%
    15:00 -1°C° 0 mm 2 m/s 758 mmHg 84%
    16:00 -1°C° 0 mm 2 m/s 758 mmHg 87%
    17:00 -2°C° 0 mm 2 m/s 758 mmHg 88%
    18:00 -2°C° 0 mm 2 m/s 758 mmHg 89%
    19:00 -2°C° 0 mm 2 m/s 758 mmHg 90%
    20:00 -2°C° 0 mm 2 m/s 758 mmHg 89%
    21:00 -2°C° 0 mm 2 m/s 758 mmHg 89%
    22:00 -3°C° 0 mm 2 m/s 757 mmHg 89%
    23:00 -3°C° 0 mm 2 m/s 757 mmHg 88%

    Depois de amanhã, 20 Janeiro, Domingo

    Tempo Temperatura Precipitação Vento Pressão Humidade
    00:00 -3°C° 0 mm 2 m/s 757 mmHg 88%
    01:00 -3°C° 0 mm 2 m/s 757 mmHg 87%
    02:00 -3°C° 0 mm 2 m/s 757 mmHg 88%
    03:00 -3°C° 0 mm 2 m/s 757 mmHg 88%
    04:00 -3°C° 0 mm 2 m/s 757 mmHg 88%
    05:00 -3°C° 0 mm 2 m/s 757 mmHg 88%
    06:00 -3°C° 0 mm 2 m/s 757 mmHg 89%
    07:00 -3°C° 0 mm 2 m/s 757 mmHg 89%
    08:00 -3°C° 0 mm 2 m/s 757 mmHg 88%
    09:00 -2°C° 0 mm 2 m/s 757 mmHg 86%
    10:00 -2°C° 0 mm 2 m/s 757 mmHg 85%
    11:00 -1°C° 0 mm 2 m/s 757 mmHg 83%
    12:00 -1°C° 0 mm 2 m/s 757 mmHg 82%
    13:00 0°C° 0 mm 3 m/s 757 mmHg 81%
    14:00 +1°C° 0 mm 2 m/s 757 mmHg 84%
    15:00 +1°C° 0 mm 2 m/s 757 mmHg 87%
    16:00 -1°C° 0 mm 2 m/s 757 mmHg 89%
    17:00 -1°C° 0 mm 2 m/s 757 mmHg 90%
    18:00 -1°C° 0 mm 2 m/s 758 mmHg 90%
    19:00 -2°C° 0 mm 2 m/s 758 mmHg 91%
    20:00 -2°C° 0 mm 2 m/s 758 mmHg 91%
    21:00 -2°C° 0 mm 2 m/s 759 mmHg 91%
    22:00 -2°C° 0 mm 2 m/s 759 mmHg 91%
    23:00 -2°C° 0 mm 2 m/s 759 mmHg 91%

    21 Janeiro, Segunda-feira

    Tempo Temperatura Precipitação Vento Pressão Humidade
    00:00 -2°C° 0 mm 2 m/s 759 mmHg 92%
    01:00 +1°C° 0 mm 1 m/s 760 mmHg 92%
    02:00 -2°C° 0 mm 2 m/s 760 mmHg 93%
    03:00 -2°C° 0 mm 2 m/s 760 mmHg 94%
    04:00 -2°C° 0 mm 2 m/s 760 mmHg 94%
    05:00 -2°C° 0.1 mm 2 m/s 760 mmHg 93%
    06:00 -1°C° 0.1 mm 3 m/s 760 mmHg 92%
    07:00 -1°C° 0.1 mm 3 m/s 760 mmHg 91%
    08:00 -1°C° 0 mm 3 m/s 760 mmHg 89%
    09:00 -1°C° 0 mm 3 m/s 760 mmHg 86%
    10:00 -1°C° 0 mm 3 m/s 760 mmHg 84%
    11:00 -2°C° 0 mm 4 m/s 760 mmHg 80%
    12:00 -2°C° 0 mm 4 m/s 760 mmHg 77%
    13:00 -2°C° 0 mm 4 m/s 759 mmHg 73%
    14:00 -2°C° 0 mm 4 m/s 759 mmHg 73%
    15:00 -2°C° 0 mm 4 m/s 759 mmHg 73%
    16:00 -2°C° 0 mm 4 m/s 758 mmHg 73%
    17:00 -2°C° 0 mm 4 m/s 758 mmHg 71%
    18:00 -4°C° 0 mm 5 m/s 758 mmHg 70%
    19:00 -4°C° 0 mm 5 m/s 757 mmHg 69%
    20:00 -4°C° 0 mm 5 m/s 757 mmHg 70%
    21:00 -4°C° 0 mm 5 m/s 757 mmHg 71%
    22:00 -4°C° 0 mm 5 m/s 756 mmHg 73%
    23:00 -3°C° 0 mm 4 m/s 756 mmHg 75%

    22 Janeiro, Terça-feira

    Tempo Temperatura Precipitação Vento Pressão Humidade
    00:00 -4°C° 0 mm 4 m/s 756 mmHg 76%
    01:00 -4°C° 0 mm 4 m/s 755 mmHg 78%
    02:00 -4°C° 0 mm 4 m/s 755 mmHg 79%
    03:00 -4°C° 0 mm 4 m/s 754 mmHg 79%
    04:00 -4°C° 0 mm 3 m/s 754 mmHg 80%
    05:00 -4°C° 0 mm 4 m/s 753 mmHg 77%
    06:00 -4°C° 0 mm 4 m/s 752 mmHg 73%
    07:00 -3°C° 0 mm 4 m/s 752 mmHg 70%
    08:00 -3°C° 0 mm 4 m/s 751 mmHg 67%
    09:00 -4°C° 0 mm 5 m/s 751 mmHg 64%
    10:00 -4°C° 0 mm 5 m/s 750 mmHg 62%
    11:00 -4°C° 0 mm 5 m/s 750 mmHg 60%
    12:00 -2°C° 0 mm 5 m/s 749 mmHg 58%
    13:00 -3°C° 0 mm 6 m/s 748 mmHg 57%
    14:00 -3°C° 0 mm 6 m/s 747 mmHg 58%
    15:00 -3°C° 0 mm 6 m/s 746 mmHg 59%
    16:00 -4°C° 0 mm 6 m/s 745 mmHg 60%
    17:00 -4°C° 0 mm 6 m/s 745 mmHg 60%
    18:00 -4°C° 0 mm 6 m/s 744 mmHg 59%
    19:00 -4°C° 0 mm 6 m/s 744 mmHg 58%
    20:00 -4°C° 0 mm 6 m/s 743 mmHg 59%
    21:00 -4°C° 0 mm 5 m/s 743 mmHg 59%
    22:00 -4°C° 0 mm 5 m/s 742 mmHg 60%
    23:00 -4°C° 0 mm 5 m/s 742 mmHg 61%

    23 Janeiro, Quarta-feira

    Tempo Temperatura Precipitação Vento Pressão Humidade
    00:00 -4°C° 0 mm 5 m/s 742 mmHg 63%
    01:00 -4°C° 0 mm 5 m/s 741 mmHg 64%
    02:00 -4°C° 0 mm 5 m/s 741 mmHg 66%
    03:00 -4°C° 0 mm 5 m/s 741 mmHg 69%
    04:00 -5°C° 0 mm 5 m/s 740 mmHg 71%
    05:00 -4°C° 0 mm 4 m/s 740 mmHg 73%
    06:00 -4°C° 0 mm 4 m/s 740 mmHg 75%
    07:00 -4°C° 0 mm 4 m/s 740 mmHg 78%
    08:00 -4°C° 0 mm 4 m/s 740 mmHg 77%
    09:00 -4°C° 0 mm 4 m/s 740 mmHg 75%
    10:00 -3°C° 0 mm 4 m/s 740 mmHg 74%
    11:00 -2°C° 0 mm 3 m/s 740 mmHg 72%
    12:00 -2°C° 0 mm 3 m/s 740 mmHg 71%
    13:00 -1°C° 0 mm 3 m/s 739 mmHg 69%
    14:00 -2°C° 0 mm 3 m/s 739 mmHg 72%
    15:00 -2°C° 0 mm 3 m/s 739 mmHg 75%
    16:00 -2°C° 0 mm 3 m/s 739 mmHg 78%
    17:00 -2°C° 0.1 mm 3 m/s 739 mmHg 78%
    18:00 -4°C° 0.1 mm 3 m/s 739 mmHg 78%
    19:00 -4°C° 0.1 mm 3 m/s 739 mmHg 78%
    20:00 -4°C° 0 mm 3 m/s 740 mmHg 80%
    21:00 -3°C° 0 mm 2 m/s 740 mmHg 81%
    22:00 -4°C° 0 mm 2 m/s 740 mmHg 83%
    23:00 -3°C° 0.1 mm 2 m/s 740 mmHg 85%
    Mostrar mais